Weather in Kulikovo

Russia / Arkhangel'skaya Oblast'     61°42′43″N   46°40′36″E
temp.,
°C
wind,
m/s
gust,
m/s
humid.,
%
clouds,
%
prec.,
mm/h
press.,
hPa
HPBL,
m
7 may, fri
fri700:00+7sse4139098 0.1 1004536
03:00+7sse4129683 0.1 1003438
06:00+9s41287100 0.0 1004761
09:00+10sw41178100 0.3 10051261
12:00+12wsw5756100 0.0 10071362
15:00+12sw3550100 0.0 10061475
18:00+9ssw3679100 0.8 1007687
21:00+7sw3984100 1.6 1009410
8 may, sat
sat800:00+5sw310915 0.1 1010358
03:00+3ssw27963 0.1 1013171
06:00+6ssw37845 0.0 1014275
09:00+11s466014 0.0 1015978
12:00+14s4746100 0.0 10152134
15:00+13sse3756100 0.0 10141223
18:00+13se3855100 0.0 1012536
21:00+10se41364100 0.0 1011555
9 may, sun
sun900:00+10se51462100 0.0 1008621
03:00+9se51377100 0.1 1006700
06:00+10sse61586100 1.3 10041130
09:00+10sse61492100 2.4 10031110
12:00+10s61379100 1.6 10051175
15:00+13ssw71363100 1.9 10061726
18:00+8sw61172100 0.1 10111470
21:00+4wsw5892100 0.2 1015937
10 may, mon
mon1000:00+3w3987100 0.1 1017637
03:00+2sw279712 0.1 1020233
06:00+5wsw37773 0.0 1022356
09:00+10wsw48465 0.0 10221519
12:00+11w485093 0.0 10231669
15:00+12wsw485080 0.5 10231756
18:00+11sw376299 0.2 10241114
21:00+8s2779100 0.2 1024144
11 may, tue
tue1100:00+7sw3118198 0.0 1023396
03:00+8sw41287100 0.2 1023638
06:00+10ssw41286100 0.3 1023535
09:00+15wsw51065100 0.3 1022853
12:00+18wsw61156100 0.0 10211372
15:00+20w6125262 0.0 10221670
18:00+19wsw4955100 0.0 10221358
21:00+13sw2977100 0.0 1023182